Wind_Speed
4 4 3 3 3 3 3 4 4 4 4 5 6 5 5 6 7 7 7 8 9 10 11 12 12 12 13 14 14 14 14 14 15 15 15 15 15 15 16 17 18 17 17
4 5 4 4 4 4 4 4 4 3 4 5 5 5 6 6 6 7 7 9 10 10 10 11 12 13 13 14 15 15 15 15 15 15 15 15 15 16 16 16 17 17 17
5 4 4 4 4 5 5 5 5 4 4 5 6 6 6 6 7 7 8 9 10 11 11 11 12 13 14 14 15 16 16 16 16 16 16 16 15 16 16 16 16 17 18
5 4 4 4 5 6 6 6 6 5 5 5 5 5 6 7 7 8 9 9 10 10 10 11 12 14 14 14 15 15 17 17 17 17 17 17 17 16 16 16 16 17 18
5 5 5 5 5 6 7 7 6 6 6 6 6 6 7 7 8 8 9 10 11 11 10 11 12 13 15 15 16 16 17 17 17 18 18 17 18 17 17 17 17 18 18
6 6 6 6 7 7 7 7 7 7 7 8 7 7 7 8 8 9 10 11 11 11 12 12 12 13 15 16 17 17 19 19 18 19 19 19 19 18 19 19 18 19 20
6 7 7 7 7 7 7 8 8 8 8 8 8 8 9 9 10 10 11 12 12 12 12 12 13 13 13 14 16 17 17 18 18 19 19 20 19 19 19 19 20 19 20
7 7 8 8 8 8 8 8 9 9 10 10 10 10 10 11 11 12 12 12 13 13 13 13 14 15 15 16 16 16 16 17 17 18 19 21 20 19 20 20 19 20 20
8 7 8 8 9 9 10 10 11 11 11 11 11 11 11 12 12 13 13 13 14 15 15 15 16 16 16 17 17 17 17 18 19 20 20 21 21 21 21 21 21 21 21
9 9 9 10 11 11 12 12 13 13 13 13 13 13 13 14 14 14 14 15 16 16 17 16 17 18 18 18 18 18 19 19 20 20 21 21 22 22 22 23 23 23 22
10 11 11 12 13 14 14 14 14 15 15 15 16 16 16 16 16 16 16 17 18 18 18 18 18 19 19 19 18 19 20 20 21 22 22 21 22 23 24 24 24 25 24
12 12 13 14 14 15 16 16 16 17 17 18 18 18 19 19 18 19 18 19 19 19 20 20 20 20 20 20 20 21 21 21 22 22 22 22 23 24 24 24 24 25 25
13 13 14 14 15 16 16 17 18 18 19 19 19 20 20 20 20 20 20 20 21 21 20 20 21 21 21 21 21 22 22 22 22 23 23 23 24 24 25 25 25 25 24
14 14 14 15 16 17 18 18 18 19 20 20 20 21 21 21 20 20 21 21 21 22 22 21 21 22 22 22 22 22 23 23 23 23 24 24 24 24 24 24 24 24 24
16 16 16 17 18 19 19 20 20 20 21 21 21 22 22 22 22 22 22 21 22 22 22 22 22 23 23 23 23 23 24 24 24 25 25 25 25 25 25 24 23 24 25
17 17 18 18 18 19 20 21 22 22 22 22 23 23 23 23 23 23 22 22 23 23 22 23 24 24 24 24 24 25 25 25 25 25 26 26 26 26 25 25 25 25 26
19 19 19 20 20 20 21 22 22 23 23 23 24 24 24 24 24 23 23 23 24 24 23 23 24 24 24 25 25 25 26 26 26 26 26 26 27 27 26 26 26 26 26
19 20 20 21 21 22 22 23 23 23 23 24 24 24 25 24 24 24 25 25 25 25 24 24 24 24 25 25 25 26 26 27 27 27 27 27 28 28 28 27 27 27 27
20 20 21 22 22 23 24 24 24 24 24 24 24 25 25 24 24 25 26 26 25 25 25 25 25 25 25 26 26 27 27 27 27 28 28 28 28 29 29 28 28 27 27
22 22 22 23 24 24 25 25 25 25 25 25 25 26 25 24 25 26 26 26 25 25 25 25 25 25 26 27 27 27 27 27 28 28 28 28 28 28 29 29 29 29 28
23 24 24 25 25 26 26 26 25 25 25 26 26 26 26 26 26 26 26 26 25 24 24 25 25 26 27 27 27 27 27 27 28 28 28 27 28 28 28 29 29 28 27
24 25 24 25 26 27 27 26 25 25 26 27 27 27 27 26 27 26 26 26 26 25 25 25 26 27 28 27 27 27 28 28 29 29 28 28 28 28 28 28 28 28 28
25 26 26 27 27 27 27 27 26 26 26 27 27 27 27 27 27 26 26 26 26 26 25 25 26 26 27 28 27 27 28 28 28 28 29 29 29 28 28 28 28 28 28
25 26 27 27 27 27 27 27 27 28 28 28 28 28 27 27 26 26 26 26 26 26 26 26 26 27 27 27 28 28 28 28 29 29 29 28 28 28 28 28 28 28 29
26 27 27 27 27 27 28 28 28 29 29 29 29 28 27 27 26 27 26 26 26 27 27 27 27 27 27 28 28 28 28 28 27 28 28 28 28 28 28 28 28 27 27
27 28 28 28 28 29 28 29 29 29 29 29 28 28 28 27 27 27 27 27 27 28 28 28 28 28 28 28 28 27 27 27 26 27 27 27 28 28 28 28 28 28 28
Wind_Direction
29 30 33 12 14 14 7 359 345 326 320 320 310 292 284 288 278 275 274 269 263 258 256 253 248 247 248 244 244 245 246 247 246 248 247 248 248 247 249 249 249 247 247
29 27 20 15 7 356 345 340 338 339 329 315 309 298 293 289 283 281 282 282 272 259 260 257 252 252 251 247 247 248 248 247 248 248 246 247 250 250 252 251 245 244 246
28 25 18 7 358 346 343 341 336 329 329 315 308 305 296 295 292 284 285 285 279 271 265 260 257 254 254 252 251 250 248 247 246 246 246 249 252 252 253 253 248 247 247
13 13 5 0 351 346 345 340 334 333 328 317 309 307 305 305 299 291 286 287 285 281 276 272 265 258 257 256 254 254 249 248 247 248 248 250 252 253 255 254 252 250 247
3 359 354 349 343 340 341 341 336 329 326 323 319 315 311 304 299 300 296 293 288 283 284 283 275 264 259 258 258 258 256 253 252 251 249 251 253 253 253 254 252 250 250
346 345 342 343 342 340 340 339 334 327 324 321 318 315 314 311 304 299 298 300 295 288 286 281 277 271 264 262 264 263 258 254 254 254 252 254 253 253 252 252 252 253 254
339 334 333 338 339 338 334 331 328 323 319 314 312 310 309 309 306 301 297 298 298 294 291 286 281 277 272 269 268 265 259 254 254 254 252 253 254 257 255 254 253 254 255
336 334 333 334 332 330 328 322 318 316 312 307 305 305 303 301 301 299 296 296 298 293 288 286 283 280 275 272 272 269 264 260 258 257 256 258 259 259 258 256 254 253 254
338 336 332 327 325 323 319 314 312 309 307 304 302 302 301 296 297 299 296 296 293 290 288 286 281 280 277 274 271 268 267 264 264 262 257 257 257 258 259 258 255 255 256
329 328 327 323 318 316 314 311 309 307 305 304 301 298 297 296 296 296 294 292 291 290 289 286 281 279 279 277 273 270 269 267 268 266 264 263 259 260 262 262 259 257 257
317 320 317 315 315 314 312 308 307 305 303 303 302 299 295 295 296 294 292 292 290 290 289 287 282 280 279 277 275 273 272 272 270 268 267 267 266 266 265 263 262 262 261
315 312 311 312 314 313 310 307 305 305 304 303 302 299 296 294 295 295 292 291 289 288 288 286 282 280 276 275 275 274 273 274 272 271 269 269 268 267 266 265 264 263 261
311 309 309 310 312 313 312 309 306 305 305 305 302 300 298 295 294 295 294 292 290 289 287 285 282 281 278 275 275 276 274 274 272 271 271 271 270 268 267 266 264 263 261
310 309 309 310 312 314 312 309 308 307 307 307 305 304 300 297 296 295 293 293 292 290 288 287 284 282 280 278 277 277 276 277 275 272 270 271 271 271 270 268 264 260 259
310 308 307 308 311 311 310 308 307 307 306 304 304 302 301 299 297 296 293 293 293 291 289 287 284 282 280 279 278 277 277 277 276 273 272 273 273 273 270 271 267 263 261
310 310 309 309 310 310 309 308 307 307 306 303 301 300 299 298 296 294 292 293 293 291 288 286 286 283 281 279 279 278 277 278 278 275 275 274 273 273 273 271 271 267 264
308 308 308 308 309 309 309 308 307 305 304 301 299 298 296 295 293 292 291 293 292 291 289 287 287 286 281 279 279 278 278 278 278 277 276 274 273 273 272 270 271 267 264
308 308 308 307 308 308 307 306 306 305 304 302 299 298 297 295 292 292 294 293 292 291 289 286 285 285 282 280 279 278 277 276 278 278 277 276 274 273 272 271 270 267 263
312 312 311 308 307 307 305 305 305 304 303 303 302 300 298 295 294 295 296 293 292 291 290 288 285 285 283 283 281 279 278 277 277 278 277 276 275 274 272 271 270 267 264
312 311 310 308 307 308 307 304 304 303 302 303 302 300 301 300 298 297 295 294 292 291 290 289 286 284 284 284 283 282 281 280 279 280 281 277 275 277 274 271 268 267 265
309 309 308 309 308 308 307 305 305 304 301 300 300 300 300 299 300 299 296 294 292 291 289 288 287 286 285 285 285 285 283 281 281 281 282 281 278 277 275 271 267 267 265
311 311 309 309 308 309 308 307 305 303 301 300 299 298 298 298 299 298 296 295 293 291 290 289 288 287 287 286 285 285 283 280 280 280 280 279 278 275 273 271 267 264 264
311 312 311 309 308 308 309 307 305 305 303 301 300 299 299 298 297 295 294 295 294 292 291 290 289 289 287 286 286 287 285 282 280 279 278 279 278 275 272 270 268 266 265
312 312 312 311 310 309 309 307 305 306 304 301 300 299 299 297 296 295 294 295 295 294 293 293 292 291 290 288 287 286 286 284 281 279 278 278 278 277 273 270 269 267 265
313 313 312 312 310 309 309 307 307 306 305 302 299 299 299 297 296 295 294 294 294 292 292 292 292 291 291 290 289 288 286 284 282 279 278 277 278 278 274 270 268 266 266
312 312 310 310 310 309 309 307 307 306 305 303 302 300 300 299 298 296 295 294 292 291 291 291 290 290 290 289 288 289 288 286 283 280 278 277 278 279 276 271 269 267 267
Height
5859 5858 5858 5858 5858 5857 5856 5855 5855 5854 5853 5852 5852 5851 5851 5851 5851 5851 5851 5851 5851 5851 5851 5851 5852 5853 5853 5854 5855 5856 5856 5857 5858 5858 5859 5860 5860 5860 5860 5860 5861 5863 5865
5859 5859 5858 5858 5857 5857 5856 5855 5854 5853 5852 5852 5851 5850 5850 5850 5850 5850 5850 5850 5850 5850 5849 5849 5849 5850 5851 5851 5852 5853 5853 5854 5854 5855 5856 5856 5856 5856 5856 5855 5856 5859 5861
5859 5859 5859 5858 5857 5857 5856 5855 5854 5853 5852 5851 5850 5850 5849 5849 5849 5849 5849 5848 5848 5847 5847 5847 5847 5847 5848 5848 5849 5849 5850 5850 5851 5852 5852 5853 5853 5853 5853 5852 5853 5855 5857
5859 5859 5858 5858 5857 5856 5855 5854 5853 5852 5851 5850 5849 5849 5848 5848 5847 5847 5847 5847 5846 5845 5845 5844 5844 5844 5845 5845 5845 5846 5846 5847 5848 5848 5849 5849 5849 5850 5850 5850 5851 5852 5854
5859 5859 5858 5857 5857 5856 5855 5854 5853 5852 5851 5850 5848 5848 5847 5846 5846 5846 5845 5844 5843 5843 5842 5841 5841 5841 5841 5841 5842 5842 5842 5843 5843 5844 5845 5845 5846 5846 5847 5847 5848 5849 5850
5859 5858 5857 5856 5856 5855 5854 5853 5852 5851 5850 5849 5847 5847 5846 5845 5844 5844 5843 5842 5840 5840 5839 5838 5838 5837 5837 5837 5837 5837 5837 5838 5839 5840 5840 5841 5842 5842 5843 5843 5844 5844 5845
5859 5858 5857 5856 5855 5854 5853 5852 5850 5849 5848 5847 5846 5845 5844 5843 5842 5841 5840 5839 5838 5837 5836 5835 5834 5834 5834 5834 5833 5832 5832 5833 5834 5835 5836 5836 5837 5838 5838 5838 5839 5840 5840
5858 5857 5856 5855 5854 5853 5851 5850 5849 5848 5846 5845 5844 5843 5843 5842 5840 5839 5838 5836 5835 5834 5833 5832 5832 5831 5830 5830 5829 5829 5829 5829 5830 5830 5831 5832 5833 5833 5833 5834 5834 5835 5835
5857 5856 5855 5854 5853 5851 5850 5849 5847 5846 5844 5843 5842 5841 5840 5839 5838 5837 5835 5833 5832 5831 5830 5829 5828 5827 5827 5826 5826 5825 5825 5826 5826 5826 5826 5827 5827 5828 5828 5829 5829 5829 5830
5855 5854 5853 5852 5851 5849 5848 5846 5845 5843 5841 5840 5839 5838 5837 5836 5834 5833 5832 5830 5829 5827 5826 5825 5824 5823 5823 5822 5822 5821 5821 5821 5821 5821 5821 5821 5821 5822 5822 5823 5823 5823 5824
5854 5852 5851 5850 5848 5847 5845 5843 5842 5840 5838 5836 5835 5834 5833 5831 5830 5829 5828 5827 5825 5823 5822 5821 5820 5819 5818 5817 5817 5817 5816 5816 5816 5816 5816 5815 5816 5816 5816 5817 5817 5817 5818
5852 5850 5848 5847 5845 5844 5842 5840 5838 5836 5834 5833 5831 5829 5828 5827 5825 5824 5823 5822 5820 5819 5817 5816 5815 5813 5812 5812 5812 5811 5811 5811 5810 5810 5810 5810 5811 5811 5811 5811 5811 5811 5812
5849 5847 5846 5844 5842 5840 5838 5836 5834 5832 5830 5829 5827 5825 5823 5822 5820 5819 5818 5816 5815 5814 5812 5811 5809 5808 5807 5806 5806 5806 5805 5805 5805 5805 5805 5805 5804 5804 5804 5804 5804 5805 5805
5846 5844 5843 5841 5839 5837 5834 5832 5830 5828 5826 5824 5822 5820 5818 5817 5815 5814 5812 5811 5810 5809 5807 5806 5804 5803 5802 5801 5800 5800 5800 5799 5799 5799 5799 5798 5798 5798 5797 5797 5797 5797 5798
5843 5841 5839 5837 5835 5833 5830 5828 5826 5824 5822 5820 5817 5815 5813 5812 5810 5808 5806 5805 5804 5803 5802 5800 5798 5797 5796 5795 5795 5794 5793 5793 5793 5792 5792 5791 5791 5791 5791 5790 5790 5791 5791
5839 5837 5835 5833 5831 5828 5826 5824 5821 5819 5817 5814 5812 5810 5808 5806 5804 5802 5801 5799 5798 5797 5795 5794 5792 5791 5790 5789 5788 5787 5787 5786 5786 5785 5784 5784 5783 5783 5783 5783 5783 5783 5784
5835 5833 5831 5828 5826 5824 5821 5819 5816 5814 5811 5809 5807 5805 5802 5800 5798 5796 5794 5793 5791 5790 5789 5787 5785 5784 5783 5782 5781 5781 5780 5779 5779 5778 5777 5776 5776 5776 5776 5776 5776 5776 5776
5831 5829 5826 5824 5822 5819 5816 5814 5811 5808 5806 5803 5801 5799 5796 5794 5792 5790 5788 5787 5785 5783 5782 5780 5779 5777 5776 5775 5774 5774 5773 5772 5771 5770 5770 5769 5768 5768 5767 5767 5767 5767 5768
5827 5824 5822 5819 5817 5814 5811 5808 5805 5803 5800 5797 5795 5792 5789 5787 5785 5783 5782 5780 5778 5776 5774 5773 5772 5770 5769 5768 5767 5766 5765 5764 5763 5762 5761 5761 5760 5760 5759 5759 5759 5759 5760
5823 5820 5817 5814 5811 5808 5805 5802 5799 5797 5794 5791 5789 5786 5783 5781 5779 5777 5775 5773 5771 5769 5768 5766 5764 5763 5761 5760 5759 5758 5757 5756 5756 5754 5753 5752 5752 5751 5751 5750 5751 5751 5751
5818 5815 5812 5809 5806 5803 5799 5796 5793 5790 5788 5785 5782 5780 5777 5775 5772 5770 5768 5766 5764 5762 5761 5759 5757 5756 5754 5753 5752 5751 5750 5749 5747 5746 5745 5744 5744 5743 5742 5742 5742 5742 5743
5813 5810 5806 5803 5800 5797 5793 5790 5787 5784 5781 5779 5776 5773 5770 5768 5765 5763 5761 5759 5757 5755 5754 5752 5750 5748 5747 5745 5744 5743 5742 5741 5740 5739 5737 5736 5735 5735 5734 5734 5734 5734 5735
5808 5804 5801 5798 5794 5791 5787 5784 5780 5778 5775 5772 5769 5766 5763 5761 5758 5756 5754 5752 5750 5748 5746 5745 5743 5741 5739 5738 5736 5735 5733 5732 5731 5730 5729 5728 5727 5726 5726 5725 5725 5726 5726
5802 5799 5795 5792 5788 5785 5781 5777 5774 5771 5768 5765 5762 5759 5756 5754 5751 5749 5747 5745 5742 5740 5738 5737 5735 5733 5731 5729 5728 5727 5725 5724 5723 5721 5721 5720 5719 5718 5718 5717 5717 5717 5718
5797 5793 5789 5786 5782 5778 5775 5771 5768 5764 5761 5757 5754 5751 5749 5746 5744 5741 5739 5737 5735 5733 5730 5729 5727 5725 5723 5721 5720 5718 5717 5715 5714 5713 5712 5711 5710 5710 5710 5709 5709 5709 5710
5791 5787 5784 5780 5776 5772 5768 5765 5761 5758 5754 5750 5747 5744 5741 5738 5736 5733 5731 5729 5727 5725 5723 5721 5719 5717 5715 5713 5711 5710 5708 5707 5705 5704 5703 5702 5702 5701 5701 5701 5700 5700 5701